LogID,LogEntryDate,LogEntryTime,LogEntrySeconds,01_LogMark,AFR,STFT,CurrentLTFT,IdleLTFT,CruiseLTFT,Load,O2Sensor2,IPW,AFRMAP,LoadTiming,TimingAdv,KnockSum,RPM,Baro,MAP,Boost,WGDC_Active,MAF,IDC,InVVTtarget,APP,ExVVTtarget,InVVTactual,ExVVTactual,TPS,IAT,WGDCCorr,Speed,Battery,ECT,MAT,MAPCalcs,IMAPCalcs,MAFCalcs,ChosenCalc,Custom
1,2024-06-27,04:58:44.19799,0.30286,0,0,0,-12.5,-12.5,-2.1484375,14.0625,,1.3,,14.0625,40,0,3585.9375,14.93888722,3.4735284,-11.46535882,0,1.843152,3.884765625,10,,0,9.84375,0.15625,15.6862745098039,77,0,39.776,,185,98.6,14.0625,0,14.0625,14.0625,
2,2024-06-27,04:58:44.24485,0.34762,0,18.5,0,-12.5,-12.5,-2.1484375,14.0625,,1.3,,14.0625,40,0,3546.875,14.93888722,3.4735284,-11.46535882,0,1.843152,3.84244791666667,10,,0,9.84375,0.15625,15.6862745098039,77,0,39.776,,185,98.6,14.0625,0,14.0625,14.0625,
3,2024-06-27,04:58:44.32297,0.42863,0,18.5,0,-12.5,-12.5,-2.1484375,14.0625,,1.3,,14.0625,40,0,3554.6875,14.93888722,3.3770415,-11.56184572,0,1.784328,3.85091145833333,10,,0,9.84375,0.15625,15.6862745098039,77,0,39.776,,185,98.6,14.0625,0,14.0625,14.0625,
4,2024-06-27,04:58:44.36982,0.4733,0,18.5,0,-12.5,-12.5,-2.1484375,14.0625,,1.3,,14.0625,40,0,3585.9375,14.93888722,3.3770415,-11.56184572,0,1.784328,3.884765625,10,,0,9.84375,0.15625,15.6862745098039,77,0,39.776,,185,98.6,14.0625,0,14.0625,14.0625,
5,2024-06-27,04:58:44.43232,0.53197,0,18.5,0,-12.5,-12.5,-2.1484375,14.0625,,1.3,,14.0625,40,0,3570.3125,14.93888722,3.3770415,-11.56184572,0,1.745112,3.86783854166667,10,,0,9.84375,0.15625,15.6862745098039,77,0,39.776,,185,98.6,14.0625,0,14.0625,14.0625,
6,2024-06-27,04:58:44.47922,0.58725,0,18.5,0,-12.5,-12.5,-2.1484375,14.0625,,1.3,,14.0625,40,0,3539.0625,14.93888722,3.3770415,-11.56184572,0,1.745112,3.833984375,10,,0,9.6875,0.15625,15.6862745098039,77,0,39.776,,185,98.6,14.0625,0,14.0625,14.0625,
7,2024-06-27,04:58:44.54169,0.63739,0,18.5,0,-12.5,-12.5,-2.1484375,14.0625,,1.3,,14.0625,40,0,3531.25,14.93888722,3.3770415,-11.56184572,0,1.745112,3.82552083333333,10,,0,9.6875,0.15625,15.6862745098039,77,0,39.776,,185,98.6,14.0625,0,10.9375,12.5,
8,2024-06-27,04:58:44.61982,0.72017,0,18.5,0,-12.5,-12.5,-2.1484375,12.5,,1.3,,12.5,40,0,3546.875,14.93888722,3.3770415,-11.56184572,0,1.745112,3.84244791666667,10,,0,9.6875,0.3125,15.6862745098039,77,0,39.776,,185,98.6,14.0625,0,14.0625,14.0625,
9,2024-06-27,04:58:44.71356,0.8243,0,18.5,0,-12.5,-12.5,-2.1484375,14.0625,,1.3,,14.0625,40,0,3539.0625,14.93888722,3.2805546,-11.65833262,0,1.725504,3.833984375,10,,0,9.6875,0.3125,15.6862745098039,77,0,39.776,,185,98.6,14.0625,0,12.5,14.0625,
10,2024-06-27,04:58:44.76048,0.86925,0,18.5,0,-12.5,-12.5,-2.1484375,14.0625,,1.3,,14.0625,40,0,3515.625,14.93888722,3.2805546,-11.65833262,0,1.725504,3.80859375,10,,0,9.6875,0.3125,15.6862745098039,77,0,39.776,,185,98.6,14.0625,0,14.0625,14.0625,
11,2024-06-27,04:58:44.83856,0.93961,0,15.7,0,-12.5,-12.5,-2.1484375,14.0625,,1.3,,14.0625,40,0,3523.4375,14.93888722,3.2805546,-11.65833262,0,1.745112,3.81705729166667,10,,0,9.6875,0.3125,15.2941176470588,77,0,39.776,,185,98.6,14.0625,0,12.5,12.5,
12,2024-06-27,04:58:44.91669,1.01675,0,15.7,0,-12.5,-12.5,-2.1484375,12.5,,1.3,,14.0625,40,0,3515.625,14.93888722,3.2805546,-11.65833262,0,1.745112,3.80859375,10,,0,9.6875,0.15625,15.2941176470588,77,0,38.533,,185,98.6,14.0625,0,12.5,12.5,
13,2024-06-27,04:58:45.01045,1.11316,0,13,0,-12.5,-12.5,-2.1484375,12.5,,1.3,,12.5,40,0,3507.8125,14.93888722,3.1840677,-11.75481952,0,1.745112,3.80013020833333,10,,0,9.6875,0.15625,15.2941176470588,77,0,38.533,,185,98.6,14.0625,0,12.5,12.5,
14,2024-06-27,04:58:45.07295,1.17165,0,13,0,-12.5,-12.5,-2.1484375,12.5,,1.3,,12.5,40,0,3492.1875,14.93888722,3.1840677,-11.75481952,0,1.745112,3.783203125,10,,0,9.6875,0.3125,15.2941176470588,77,0,38.533,,185,98.6,14.0625,0,10.9375,12.5,
15,2024-06-27,04:58:45.15111,1.24749,0,12.9,0,-12.5,-12.5,-2.1484375,12.5,,1.3,,12.5,40,0,3500,14.93888722,3.2805546,-11.65833262,0,1.745112,3.79166666666667,10,,0,9.6875,0.3125,15.2941176470588,77,0,38.533,,185,98.6,14.0625,0,15.625,12.5,
16,2024-06-27,04:58:45.21357,1.31858,0,12.9,0,-12.5,-12.5,-2.1484375,14.0625,,1.3,,14.0625,40,0,3484.375,14.93888722,3.2805546,-11.65833262,0,1.745112,3.77473958333333,10,,0,9.6875,0.3125,15.2941176470588,77,0,38.533,,185,98.6,14.0625,0,14.0625,14.0625,
17,2024-06-27,04:58:45.29169,1.40017,0,12.4,0,-12.5,-12.5,-2.1484375,14.0625,,1.3,,14.0625,40,0,3460.9375,14.93888722,3.4735284,-11.46535882,0,1.745112,3.74934895833333,10,,0,9.6875,0.3125,15.6862745098039,77,0,38.533,,185,98.6,15.625,0,14.0625,14.0625,
18,2024-06-27,04:58:45.35420,1.45483,0,12.4,0,-12.5,-12.5,-2.1484375,14.0625,,1.3,,14.0625,40,0,3492.1875,14.93888722,3.4735284,-11.46535882,0,1.745112,3.783203125,10,,0,9.84375,0.15625,15.6862745098039,77,0,38.533,,185,98.6,15.625,0,15.625,14.0625,
19,2024-06-27,04:58:45.43231,1.53156,0,12.4,0,-12.5,-12.5,-2.1484375,14.0625,,1.3,,14.0625,40,0,3500,14.93888722,3.6665022,-11.27238502,0,1.784328,3.79166666666667,10,,0,9.84375,0.15625,15.6862745098039,77,0,38.533,,185,98.6,15.625,0,15.625,15.625,
20,2024-06-27,04:58:45.51044,1.62014,0,12.2,0,-12.5,-12.5,-2.1484375,15.625,,1.3,,15.625,40,0,3453.125,14.93888722,3.6665022,-11.27238502,0,1.784328,3.74088541666667,10,,0,9.6875,0.15625,16.4705882352941,77,0,38.533,,185,98.6,17.1875,0,15.625,15.625,
21,2024-06-27,04:58:45.60420,1.70975,0,12,0,-12.5,-12.5,-2.1484375,15.625,,1.3,,15.625,40,0,3468.75,14.93888722,3.859476,-11.07941122,0,1.803936,3.7578125,10,,0,9.6875,0.15625,16.4705882352941,77,0,38.533,,185,98.6,17.1875,0,17.1875,17.1875,
22,2024-06-27,04:58:45.72924,1.83099,0,12,-1.171875,-2.1484375,-12.5,-2.1484375,17.1875,,1.4,,18.75,40,0,3476.5625,14.93888722,3.859476,-11.07941122,0,1.803936,4.05598958333333,10,,0,9.6875,0.3125,16.4705882352941,77,0,38.533,,185,98.6,20.3125,0,20.3125,18.75,
23,2024-06-27,04:58:45.83857,1.94412,0,11.4,-1.171875,-2.1484375,-12.5,-2.1484375,20.3125,,1.4,,20.3125,40,0,3468.75,14.93888722,4.4383974,-10.50048982,0,1.921584,4.046875,10,,0,9.6875,0.3125,17.6470588235294,77,0,38.533,,185,98.6,21.875,0,20.3125,20.3125,
24,2024-06-27,04:58:45.88550,1.99273,0,11,-1.171875,-2.1484375,-12.5,-2.1484375,20.3125,,1.4,,20.3125,40,0,3468.75,14.93888722,4.4383974,-10.50048982,0,1.921584,4.046875,10.625,,-0.625,9.6875,0.3125,17.6470588235294,77,0,38.533,,185,98.6,21.875,0,21.875,20.3125,
25,2024-06-27,04:58:45.99482,2.0903,0,11,-2.34375,-2.1484375,-12.5,-2.1484375,20.3125,,1.4,,20.3125,40,0,3453.125,14.93888722,4.5348843,-10.40400292,0,1.921584,4.02864583333333,10.625,,-0.625,9.6875,0.3125,17.6470588235294,77,0,38.533,,185,98.6,21.875,0,20.3125,20.3125,
26,2024-06-27,04:58:46.05731,2.15659,0,10.9,-2.34375,-2.1484375,-12.5,-2.1484375,20.3125,,1.4,,20.3125,40,0,3437.5,14.93888722,4.5348843,-10.40400292,0,1.921584,4.01041666666667,10.625,,-0.625,9.6875,0.15625,18.0392156862745,77,0,38.533,,185,98.6,23.4375,0,21.875,20.3125,
27,2024-06-27,04:58:46.11982,2.22463,0,10.9,-2.34375,-2.1484375,-12.5,-2.1484375,21.875,,1.4,,20.3125,40,0,3437.5,14.93888722,4.7278581,-10.21102912,0,2.000016,4.01041666666667,10.625,,-0.625,9.6875,0.15625,18.0392156862745,77,0,38.533,,185,98.6,23.4375,0,21.875,21.875,
28,2024-06-27,04:58:46.19799,2.29568,0,10.9,-3.3203125,-2.1484375,-12.5,-2.1484375,21.875,,1.4,,21.875,40,0,3437.5,14.93888722,4.7278581,-10.21102912,0,2.000016,4.01041666666667,11.25,,-1.25,9.6875,0.15625,18.0392156862745,77,0,38.533,,185,98.6,23.4375,0,23.4375,21.875,
29,2024-06-27,04:58:46.27607,2.37443,0,10.9,-3.3203125,-2.1484375,-12.5,-2.1484375,21.875,,1.4,,21.875,40,0,3445.3125,14.93888722,4.9208319,-10.01805532,0,2.019624,4.01953125,11.25,,-1.25,9.6875,0.15625,18.4313725490196,77,0,38.533,,185,98.6,25,0,23.4375,23.4375,
30,2024-06-27,04:58:46.35419,2.4505,0,10.9,-3.3203125,-2.1484375,-12.5,-2.1484375,23.4375,,1.4,,23.4375,40,0,3445.3125,14.93888722,4.9208319,-10.01805532,0,2.019624,4.01953125,11.875,,-1.875,9.6875,0.3125,18.4313725490196,77,0,37.29,,185,98.6,25,0,21.875,23.4375,
31,2024-06-27,04:58:46.46365,2.56027,0,11.2,-4.296875,-2.1484375,-12.5,-2.1484375,23.4375,,1.4,,23.4375,40,0,3429.6875,14.93888722,5.0173188,-9.92156842,0,2.000016,4.00130208333333,11.875,,-1.875,9.6875,0.3125,18.4313725490196,77,0,37.29,,185,98.6,25,0,23.4375,23.4375,
32,2024-06-27,04:58:46.51046,2.61298,0,11.5,-4.296875,-2.1484375,-12.5,-2.1484375,23.4375,,1.4,,23.4375,40,0,3421.875,14.93888722,5.0173188,-9.92156842,0,2.000016,3.9921875,11.875,,-1.875,9.6875,0.3125,18.4313725490196,77,0,37.29,,185,98.6,25,0,21.875,23.4375,
33,2024-06-27,04:58:46.57296,2.67502,0,11.5,-4.296875,-2.1484375,-12.5,-2.1484375,23.4375,,1.4,,23.4375,40,0,3429.6875,14.93888722,5.0173188,-9.92156842,0,2.019624,4.00130208333333,11.875,,-1.875,9.6875,0.3125,18.4313725490196,77,0,37.29,,185,98.6,25,0,23.4375,23.4375,
34,2024-06-27,04:58:46.61983,2.73012,0,11.5,-5.078125,-2.1484375,-12.5,-2.1484375,23.4375,,1.4,,23.4375,40,0,3429.6875,14.93888722,5.0173188,-9.92156842,0,2.019624,4.00130208333333,12.5,,-2.5,9.6875,0.3125,18.4313725490196,77,0,37.29,,185,98.6,26.5625,0,26.5625,25,
35,2024-06-27,04:58:46.71357,2.82436,0,11.9,-5.078125,-2.1484375,-12.5,-2.1484375,25,,1.4,,25,40,0,3429.6875,14.93888722,5.3067795,-9.63210772,0,2.039232,4.00130208333333,12.5,,-2.5,9.6875,0.3125,18.8235294117647,77,0,37.29,,185,98.6,26.5625,0,28.125,25,
36,2024-06-27,04:58:46.80732,2.91055,0,11.9,-5.078125,-2.1484375,-12.5,-2.1484375,25,,1.5,,25,40,0,3414.0625,14.93888722,5.3067795,-9.63210772,0,2.039232,4.267578125,13.125,,-3.125,9.6875,0.3125,18.8235294117647,77,0,37.29,,185,98.6,28.125,0,26.5625,25,
37,2024-06-27,04:58:46.93233,3.03474,0,12.2,-6.25,-2.1484375,-12.5,-2.1484375,25,,1.4,,25,40,0,3437.5,14.93888722,5.4997533,-9.43913392,0,2.05884,4.01041666666667,13.125,,-3.125,9.6875,0.3125,18.8235294117647,77,0,37.29,,185,98.6,28.125,0,25,25,
38,2024-06-27,04:58:47.02608,3.12949,0,12.7,-6.25,-2.1484375,-12.5,-2.1484375,26.5625,,1.4,,26.5625,40,0,3414.0625,14.93888722,5.4997533,-9.43913392,0,2.05884,3.98307291666667,13.125,,-3.125,9.6875,0.15625,19.2156862745098,77,0,37.29,,185,98.6,28.125,0,26.5625,26.5625,
39,2024-06-27,04:58:47.10419,3.21234,0,12.7,-6.25,-2.1484375,-12.5,-2.1484375,26.5625,,1.5,,26.5625,40,0,3398.4375,14.93888722,5.4997533,-9.43913392,0,2.039232,4.248046875,13.125,,-3.125,9.6875,0.15625,19.2156862745098,77,0,37.29,,185,98.6,28.125,0,26.5625,26.5625,
40,2024-06-27,04:58:47.19794,3.30821,0,13.2,-7.421875,-2.1484375,-12.5,-2.1484375,26.5625,,1.4,,26.5625,40,0,3414.0625,14.93888722,5.4997533,-9.43913392,0,2.039232,3.98307291666667,13.125,,-3.125,9.84375,0,19.2156862745098,77,0,37.29,,185,98.6,28.125,0,28.125,26.5625,
41,2024-06-27,04:58:47.24484,3.34399,0,13.2,-7.421875,-2.1484375,-12.5,-2.1484375,26.5625,,1.4,,26.5625,40,0,3414.0625,14.93888722,5.4997533,-9.43913392,0,2.05884,3.98307291666667,13.125,,-3.125,9.84375,0,19.2156862745098,77,0,37.29,,185,98.6,28.125,0,25,26.5625,
42,2024-06-27,04:58:47.30732,3.41269,0,13.5,-7.421875,-2.1484375,-12.5,-2.1484375,26.5625,,1.4,,26.5625,40,0,3406.25,14.93888722,5.4997533,-9.43913392,0,2.05884,3.97395833333333,13.75,,-3.75,9.84375,0.15625,19.2156862745098,77,0,37.29,,185,98.6,28.125,0,26.5625,26.5625,
43,2024-06-27,04:58:47.38549,3.48842,0,13.5,-8.203125,-2.1484375,-12.5,-2.1484375,26.5625,,1.4,,26.5625,40,0,3406.25,14.93888722,5.5962402,-9.34264702,0,2.117664,3.97395833333333,13.75,,-3.75,9.84375,0.15625,19.2156862745098,77,0,37.29,,185,98.6,29.6875,0,29.6875,28.125,
44,2024-06-27,04:58:47.49482,3.59317,0,13.8,-8.203125,-2.1484375,-12.5,-2.1484375,28.125,,1.5,,28.125,40,0,3398.4375,14.93888722,5.5962402,-9.34264702,0,2.117664,4.248046875,14.375,,-4.375,9.6875,0,19.6078431372549,77,0,37.29,,185,98.6,31.25,0,28.125,28.125,
45,2024-06-27,04:58:47.58857,3.69026,0,13.8,-8.203125,-2.1484375,-12.5,-2.1484375,28.125,,1.4,,28.125,40,0,3406.25,14.93888722,5.9821878,-8.95669942,0,2.098056,3.97395833333333,14.375,,-4.375,9.6875,0,19.6078431372549,77,0,37.29,,185,98.6,31.25,0,29.6875,29.6875,
46,2024-06-27,04:58:47.71361,3.81322,0,14.9,-9.1796875,-2.1484375,-12.5,-2.1484375,29.6875,,1.5,,29.6875,40,0,3390.625,14.93888722,5.9821878,-8.95669942,0,2.098056,4.23828125,15,,-5,10.46875,-1.25,19.6078431372549,77,0,37.29,,185,98.6,31.25,0,28.125,29.6875,
47,2024-06-27,04:58:47.76048,3.86853,0,13.9,-9.1796875,-2.1484375,-12.5,-2.1484375,29.6875,,1.5,,29.6875,40,0,3414.0625,14.93888722,5.9821878,-8.95669942,0,2.098056,4.267578125,15,,-5,10.46875,-1.25,19.6078431372549,77,0,37.29,,185,98.6,31.25,0,28.125,28.125,
48,2024-06-27,04:58:47.79173,3.89437,0,13.9,-9.1796875,-2.1484375,-12.5,-2.1484375,29.6875,,1.5,,29.6875,40,0,3414.0625,14.93888722,5.9821878,-8.95669942,0,2.098056,4.267578125,15,,-5,11.09375,-1.875,19.6078431372549,77,0,37.29,,183.2,98.6,31.25,0,29.6875,28.125,
49,2024-06-27,04:58:47.88544,3.98547,0,13.9,-8.0078125,-2.1484375,-12.5,-2.1484375,29.6875,,1.5,,29.6875,40,0,3406.25,14.93888722,6.0786747,-8.86021252,0,2.098056,4.2578125,15,,-5,11.09375,-1.875,19.6078431372549,77,0,37.29,,183.2,98.6,31.25,0,28.125,28.125,
50,2024-06-27,04:58:47.96357,4.06817,0,14.8,-8.0078125,-2.1484375,-12.5,-2.1484375,28.125,,1.5,,29.6875,40,0,3382.8125,14.93888722,6.0786747,-8.86021252,0,2.098056,4.228515625,15,,-5,12.03125,-2.34375,19.6078431372549,77,0,37.29,,183.2,98.6,31.25,0,29.6875,29.6875,
51,2024-06-27,04:58:48.05731,4.15404,0,14.8,-8.0078125,-2.1484375,-12.5,-2.1484375,29.6875,,1.5,,29.6875,40,0,3398.4375,14.93888722,6.0786747,-8.86021252,0,2.117664,4.248046875,15,,-5,12.03125,-2.34375,19.6078431372549,77,0,37.29,,183.2,98.6,31.25,0,31.25,29.6875,
52,2024-06-27,04:58:48.13547,4.23407,0,15,-6.4453125,-2.1484375,-12.5,-2.1484375,29.6875,,1.5,,29.6875,40,0,3390.625,14.93888722,6.0786747,-8.86021252,0,2.117664,4.23828125,15,,-5,12.96875,-2.65625,19.6078431372549,77,0,37.29,,183.2,98.6,31.25,0,29.6875,29.6875,
53,2024-06-27,04:58:48.19794,4.29973,0,15,-6.4453125,-2.1484375,-12.5,-2.1484375,29.6875,,1.5,,29.6875,40,0,3398.4375,14.93888722,6.0786747,-8.86021252,0,2.098056,4.248046875,15,,-5,12.96875,-2.65625,19.6078431372549,77,0,37.29,,183.2,98.6,31.25,0,29.6875,29.6875,
54,2024-06-27,04:58:48.22920,4.33727,0,15.1,-6.4453125,-2.1484375,-12.5,-2.1484375,29.6875,,1.5,,29.6875,40,0,3398.4375,14.93888722,6.0786747,-8.86021252,0,2.098056,4.248046875,15,,-5,13.125,-2.96875,19.6078431372549,77,0,37.29,,185,98.6,31.25,0,31.25,29.6875,
55,2024-06-27,04:58:48.32294,4.43008,0,15.1,-5.2734375,-2.1484375,-12.5,-2.1484375,29.6875,,1.6,,29.6875,40,0,3390.625,14.93888722,6.0786747,-8.86021252,0,2.117664,4.52083333333333,15,,-5,13.125,-2.96875,19.6078431372549,77,0,37.29,,185,98.6,31.25,0,29.6875,29.6875,
56,2024-06-27,04:58:48.38547,4.49352,0,15,-5.2734375,-2.1484375,-12.5,-2.1484375,29.6875,,1.6,,29.6875,40,0,3406.25,14.93888722,6.0786747,-8.86021252,0,2.117664,4.54166666666667,15,,-5,13.59375,-3.28125,19.6078431372549,77,0,37.29,,185,98.6,31.25,0,29.6875,29.6875,
57,2024-06-27,04:58:48.46361,4.56984,0,15,-5.2734375,-2.1484375,-12.5,-2.1484375,29.6875,,1.6,,29.6875,40,0,3398.4375,14.93888722,5.9821878,-8.95669942,0,2.078448,4.53125,15,,-5,13.59375,-3.28125,19.6078431372549,77,0,37.29,,185,98.6,31.25,0,29.6875,29.6875,
58,2024-06-27,04:58:48.54169,4.64204,0,15,-3.90625,-2.1484375,-12.5,-2.1484375,29.6875,,1.6,,29.6875,40,0,3406.25,14.93888722,5.9821878,-8.95669942,0,2.078448,4.54166666666667,15,,-5.625,13.90625,-3.59375,19.6078431372549,77,0,37.29,,185,98.6,31.25,0,31.25,29.6875,
59,2024-06-27,04:58:48.63545,4.73342,0,14.9,-3.90625,-2.1484375,-12.5,-2.1484375,29.6875,,1.6,,29.6875,40,0,3398.4375,14.93888722,6.0786747,-8.86021252,0,2.098056,4.53125,15,,-5.625,13.90625,-3.59375,19.6078431372549,77,0,37.29,,185,98.6,31.25,0,29.6875,29.6875,
60,2024-06-27,04:58:48.66674,4.7695,0,14.8,-3.90625,-2.1484375,-12.5,-2.1484375,29.6875,,1.6,,29.6875,40,0,3398.4375,14.93888722,6.0786747,-8.86021252,0,2.098056,4.53125,15,,-5,14.0625,-4.0625,19.6078431372549,77,0,37.29,,183.2,98.6,31.25,0,31.25,29.6875,
61,2024-06-27,04:58:48.72919,4.82547,0,14.8,-2.9296875,-2.1484375,-12.5,-2.1484375,29.6875,,1.6,,29.6875,40,0,3398.4375,14.93888722,6.0786747,-8.86021252,0,2.117664,4.53125,15,,-5,14.0625,-4.0625,19.6078431372549,77,0,37.29,,183.2,98.6,31.25,0,29.6875,29.6875,
62,2024-06-27,04:58:48.76044,4.8564,0,14.8,-2.9296875,-2.1484375,-12.5,-2.1484375,29.6875,,1.6,,29.6875,40,0,3398.4375,14.93888722,6.0786747,-8.86021252,0,2.117664,4.53125,15,,-5,14.21875,-4.21875,19.6078431372549,77,0,37.29,,183.2,98.6,31.25,0,29.6875,29.6875,
63,2024-06-27,04:58:48.82297,4.92145,0,14.8,-2.9296875,-2.1484375,-12.5,-2.1484375,29.6875,,1.6,,29.6875,40,0,3406.25,14.93888722,6.0786747,-8.86021252,0,2.15688,4.54166666666667,15,,-5,14.21875,-4.21875,19.6078431372549,77,0,37.29,,183.2,98.6,31.25,0,31.25,29.6875,
64,2024-06-27,04:58:48.86982,4.97615,0,14.4,-1.953125,-2.1484375,-12.5,-2.1484375,29.6875,,1.6,,29.6875,40,0,3406.25,14.93888722,6.0786747,-8.86021252,0,2.15688,4.54166666666667,15,,-5.625,14.0625,-4.375,19.6078431372549,77,0,37.29,,183.2,98.6,31.25,0,29.6875,29.6875,
65,2024-06-27,04:58:48.91669,5.01258,0,14.4,-1.953125,-2.1484375,-12.5,-2.1484375,29.6875,,1.6,,29.6875,40,0,3406.25,14.93888722,6.0786747,-8.86021252,0,2.078448,4.54166666666667,15,,-5.625,14.0625,-4.375,20,77,0,37.29,,183.2,98.6,31.25,0,29.6875,29.6875,
66,2024-06-27,04:58:48.93232,5.04131,0,14.4,-1.953125,-2.1484375,-12.5,-2.1484375,29.6875,,1.6,,29.6875,40,0,3406.25,14.93888722,6.0786747,-8.86021252,0,2.078448,4.54166666666667,15,,-5,14.375,-4.375,20,77,0,37.29,,183.2,98.6,31.25,0,29.6875,29.6875,
67,2024-06-27,04:58:49.02608,5.13167,0,14.4,-2.5390625,-2.1484375,-12.5,-2.1484375,29.6875,,1.6,,29.6875,40,0,3398.4375,14.93888722,6.0786747,-8.86021252,0,2.098056,4.53125,15,,-5,14.375,-4.375,20,77,0,37.29,,183.2,98.6,31.25,0,31.25,29.6875,
68,2024-06-27,04:58:49.08858,5.19547,0,14.8,-2.5390625,-2.1484375,-12.5,-2.1484375,29.6875,,1.6,,29.6875,40,0,3406.25,14.93888722,6.0786747,-8.86021252,0,2.098056,4.54166666666667,15,,-5,14.21875,-4.21875,19.6078431372549,77,0,37.29,,183.2,98.6,31.25,0,28.125,29.6875,
69,2024-06-27,04:58:49.15111,5.25537,0,14.8,-2.5390625,-2.1484375,-12.5,-2.1484375,29.6875,,1.6,,29.6875,40,0,3398.4375,14.93888722,6.0786747,-8.86021252,0,2.117664,4.53125,15,,-5,14.21875,-4.21875,19.6078431372549,77,0,37.29,,183.2,98.6,31.25,0,29.6875,29.6875,
70,2024-06-27,04:58:49.27608,5.37153,0,14.3,-3.515625,-2.1484375,-12.5,-2.1484375,29.6875,,1.6,,29.6875,40,0,3406.25,14.93888722,6.0786747,-8.86021252,0,2.117664,4.54166666666667,15,,-5.625,14.21875,-4.21875,19.6078431372549,77,0,37.29,,183.2,98.6,32.8125,0,32.8125,31.25,
71,2024-06-27,04:58:49.36983,5.4748,0,14.3,-3.515625,-2.1484375,-12.5,-2.1484375,31.25,,1.6,,32.8125,40,0,3406.25,14.93888722,6.9470568,-7.99183042,0,2.333352,4.54166666666667,15,,-5.625,14.21875,-4.21875,24.3137254901961,77,0,37.29,,183.2,98.6,40.625,0,50,39.0625,
72,2024-06-27,04:58:49.47919,5.5746,0,14.3,-3.515625,-2.1484375,-12.5,-2.1484375,40.625,,1.8,,43.75,40,0,3421.875,14.93888722,6.9470568,-7.99183042,0,2.333352,5.1328125,20.625,,-14.375,15.3125,-7.1875,24.3137254901961,77,0,37.29,,183.2,98.6,50,0,50,48.4375,
73,2024-06-27,04:58:49.61982,5.72419,0,14.3,-2.734375,-2.1484375,-12.5,-2.1484375,48.4375,,2,,50,41,0,3406.25,14.93888722,9.5522031,-5.38668412,0,2.568648,5.67708333333333,20.625,,-14.375,15.3125,-7.1875,24.3137254901961,77,0,37.29,,183.2,98.6,60.9375,0,70.3125,57.8125,
74,2024-06-27,04:58:49.72920,5.83421,0,15.1,-2.734375,-2.1484375,-12.5,-2.1484375,59.375,,2.5,,67.1875,37,0,3453.125,14.93888722,9.5522031,-5.38668412,0,2.568648,7.19401041666667,28.75,,-20,20.78125,-16.40625,36.4705882352941,77,0,37.29,,183.2,98.6,81.25,0,85.9375,78.125,
75,2024-06-27,04:58:49.86982,5.9766,0,15.6,-2.734375,-2.1484375,-12.5,-2.1484375,81.25,,2.8,,82.8125,32,0,3468.75,14.93888722,14.473035,-0.46585222,12,2.9412,8.09375,28.75,,-20,20.78125,-16.40625,36.4705882352941,77,0,38.533,,183.2,98.6,95.3125,0,107.8125,95.3125,
76,2024-06-27,04:58:50.02607,6.12804,0,14.9,-0.9765625,0,-12.5,-2.1484375,96.875,,3.3,,100,26,0,3515.625,14.93888722,14.473035,-0.46585222,12,2.9412,9.66796875,33.125,,-19.375,32.1875,-19.53125,36.4705882352941,77,0,38.533,,183.2,98.6,104.6875,0,125,104.6875,
77,2024-06-27,04:58:50.16669,6.26444,0,12.4,-0.9765625,0,-12.5,-2.1484375,106.25,,4.1,,107.8125,24,0,3578.125,14.93888722,17.4641289,2.52524168,35,3.392184,12.2252604166667,33.125,,-19.375,32.1875,-19.53125,70.9803921568627,77,0,38.533,,183.2,98.6,114.0625,0,139.0625,114.0625,
78,2024-06-27,04:58:50.26047,6.36378,0,12.4,-0.9765625,0,-12.5,-2.1484375,115.625,,4.5,,117.1875,23,0,3617.1875,14.93888722,17.4641289,2.52524168,35,3.392184,13.564453125,33.125,,-16.875,33.59375,-19.375,70.9803921568627,77,0,38.533,,183.2,98.6,121.875,0,143.75,121.875,
79,2024-06-27,04:58:50.41669,6.52019,0,11.4,0,0,-12.5,-2.1484375,125,,5,,128.125,21,0,3679.6875,14.93888722,20.0692752,5.13038798,45.5,3.607872,15.33203125,33.125,,-16.875,33.59375,-19.375,70.9803921568627,77,0,38.533,,183.2,98.6,135.9375,0,164.0625,135.9375,
80,2024-06-27,04:58:50.52607,6.62199,0,10.5,0,0,-12.5,-2.1484375,135.9375,,5.3,,139.0625,19,0,3750,14.93888722,20.0692752,5.13038798,45.5,3.607872,16.5625,33.125,,-11.25,33.90625,-17.5,82.3529411764706,77,4,38.533,,183.2,98.6,145.3125,0,179.6875,145.3125,
81,2024-06-27,04:58:50.66674,6.76543,0,10.6,0,0,-12.5,-2.1484375,145.3125,,5.8,,148.4375,17,0,3820.3125,14.93888722,23.4463167,8.50742948,50.5,3.62748,18.46484375,33.125,,-11.25,33.90625,-17.5,82.3529411764706,77,4,41.019,,183.2,98.6,159.375,0,200,159.375,
82,2024-06-27,04:58:50.77615,6.87303,0,10.7,0,0,-12.5,-2.1484375,160.9375,,6.3,,164.0625,13,0,3906.25,14.93888722,23.4463167,8.50742948,50.5,3.62748,20.5078125,33.125,,-6.25,33.59375,-12.34375,82.3529411764706,77,4,41.019,,183.2,98.6,173.4375,0,215.625,173.4375,
83,2024-06-27,04:58:50.90107,7.0067,0,10.7,0,0,-12.5,-2.1484375,173.4375,,6.7,,178.125,11,0,3976.5625,14.93888722,27.8847141,12.94582688,55,3.784344,22.2024739583333,33.125,,-6.25,33.59375,-12.34375,85.0980392156863,77,8,41.019,,183.2,98.6,192.1875,0,231.25,192.1875,
84,2024-06-27,04:58:51.01044,7.11753,0,11,0,0,-12.5,-2.1484375,192.1875,,7.4,,196.875,9,0,4070.3125,14.93888722,27.8847141,12.94582688,55,3.784344,25.1002604166667,33.125,,0,33.59375,-5.15625,85.0980392156863,77,8,41.019,,183.2,96.8,209.375,0,246.875,209.375,
85,2024-06-27,04:58:51.15107,7.24762,0,11.3,0,0,-12.5,-2.1484375,212.5,,8.1,,215.625,9,0,4179.6875,14.93888722,32.7090591,17.77017188,55.5,3.960816,28.212890625,33.125,,0,33.59375,-5.15625,85.0980392156863,77,8,41.019,,183.2,96.8,229.6875,0,257.8125,229.6875,
86,2024-06-27,04:58:51.24482,7.3439,0,11.2,0,0,-12.5,-2.1484375,229.6875,,8.8,,234.375,9,0,4265.625,14.93888722,32.7090591,17.77017188,55.5,3.960816,31.28125,33.125,,0,33.90625,-2.96875,85.0980392156863,75.2,8,41.019,,183.2,96.8,243.75,0,260.9375,243.75,
87,2024-06-27,04:58:51.35420,7.46168,0,11.2,0,0,-12.5,-2.1484375,242.1875,,9.2,,245.3125,9,0,4335.9375,14.93888722,36.0861006,21.14721338,56,4.352976,33.2421875,33.125,,0,33.90625,-2.96875,85.0980392156863,75.2,8,47.234,,183.2,96.8,256.25,0,259.375,254.6875,
88,2024-06-27,04:58:51.44794,7.55753,0,11,0,0,-12.5,-2.1484375,257.8125,,9.7,,260.9375,9,0,4468.75,14.93888722,36.0861006,21.14721338,56,4.352976,36.1223958333333,33.125,,0,34.0625,-2.65625,85.0980392156863,75.2,8,47.234,,183.2,96.8,267.1875,0,276.5625,267.1875,
89,2024-06-27,04:58:51.58862,7.68728,0,10.8,0,0,-12.5,-2.1484375,267.1875,,10,,268.75,9,0,4531.25,14.93888722,38.7877338,23.84884658,56.5,4.196112,37.7604166666667,33.125,,0,34.0625,-2.65625,85.0980392156863,75.2,8,47.234,,183.2,96.8,279.6875,0,270.3125,275,
90,2024-06-27,04:58:51.68241,7.78398,0,10.8,0,0,-12.5,-2.1484375,275,,10.2,,273.4375,8,0,4671.875,14.93888722,38.7877338,23.84884658,56.5,4.196112,39.7109375,33.125,,0,34.21875,-2.96875,85.0980392156863,75.2,8,47.234,,183.2,96.8,285.9375,0,289.0625,276.5625,